COSMOS 1275 DEB, 42189

Orbit data source: Space-Track

COSMOS 1275 DEB, 42189 is space debris in LEO originally from a launch on Thu, 04 Jun 1981 UTC launched from the Plesetsk Missile And Space Complex (PKMTR). Debris objects in space refer to the collection of defunct objects orbiting the Earth. Examples of debris include non-operational satellites, rocket bodies, and fragments generated from explosions, collisions, or faulty payload assembly.

Loading next visibility...
Identifier
42189, 1981-053TD
Orbit
LEO
Country
Flag of CISCIS
Related business
Manufacturer
Unknown
Mission
Spacecraft
Bus & Motor
Unknown
Mass
Unknown
Launch date (UTC)
1981-06-04 (44 years ago)
Launch vehicle
Unknown
Launch site
Plesetsk Missile And Space Complex (PKMTR)
Object type
Payload
Rocket body
Debris
Shape & HBR
Unknown
Radar Cross Section
Small (<0.1 m²)

Expand to show TLE details & history
Last TLE update: 2 days ago

TLE from 2 days ago
0 COSMOS 1275 DEB
1 42189U 81053TD  25258.40139529  .00001149  00000-0  11918-2 0  9993
2 42189  83.0191 132.9629 0122926  87.6241 273.8981 13.71553620571307
Epoch: 2025-09-15T09:38Z
TLE epoch observation values (Epoch: 2025-09-15T09:38:00.553Z)
Latitude
0.00001°
Longitude
-6.14598°
Altitude
991.844 km
Speed
7.358 km/s
True Right ascension
08h 51m 51s
True Declination
0° 00' 00"
Sunlit
Object was in daylight at epoch
Visualization orbit readout
Latitude
Unknown
Longitude
Unknown
Altitude
Unknown
Speed
Unknown
Apparent Right ascension
Unknown
Apparent Declination
Unknown
Sunlit
N/A
Visualization observer readout
Local Sidereal Time
14:07:18
Azimuth
Unknown
Elevation
Unknown
Doppler factor
Unknown
Orbital elements
Apogee altitude
1,081.736 km
Perigee altitude
900.561 km
Semi-major axis
7,369.286 km
Eccentricity
0.01229
Inclination
83.0191°
RAAN
132.9629°
Arg. of periapsis
87.6241°
True anomaly
272.4914°
Mean anomaly
273.8981°
Eccentric anomaly
273.19488°
Mean motion
3.43088 °/min
Orbital period
104.93 mins
BSTAR
0.0011918
Loading maneuver chart data...
Computing Atmospheric mass density...
Loading historical data...
Loading historical data...
Loading historical data...
Loading historical data...
Loading historical data...
Loading historical data...
Loading historical data...

Documentation

Showing up to 5 results
|